Regional Weather Roundup
Issued by NWS

Home | Current Version | Previous Version | Graphics & Text | Print | Product List | Glossary Off
Versions: 1 2 3 4 5 6 7 8 9 10 11 12 13 14 15 16 17 18 19 20 21 22 23 24 25 26 27 28 29 30 31 32 33 34 35 36 37 38 39 40 41 42 43 44 45 46 47 48 49 50

000
ASUS43 KMPX 210210
RWRMN
WEATHER ROUNDUP FOR MINNESOTA
NATIONAL WEATHER SERVICE TWIN CITIES/CHANHASSEN MN
800 PM CST SAT DEC 20 2014


NOTE: "FAIR" INDICATES FEW OR NO CLOUDS BELOW 12,000 FEET WITH NO
SIGNIFICANT WEATHER AND/OR OBSTRUCTIONS TO VISIBILITY. N/A MEANS
CURRENT SKY AND/OR WEATHER CONDITIONS ARE NOT AVAILABLE.

MNZ060>063-068>070-210300-
   Twin Cities Metro

CITY           SKY/WX    TMP DP  RH WIND       PRES   REMARKS
TWIN CITIES    CLOUDY    32  27  81 S10       30.11S WCI  24
ST PAUL        CLOUDY    32  27  81 S12       30.12F WCI  23
CRYSTAL        CLOUDY    32  26  78 S14G21    30.09S WCI  22
BLAINE         CLOUDY    34  30  86 S12G17    30.10S WCI  25
LAKEVILLE      CLOUDY    30  27  86 S9        30.10F WCI  22
EDEN PRAIRIE   CLOUDY    31  26  82 S14       30.09S WCI  21
SOUTH ST PAUL  CLOUDY    32  28  83 S10       30.11S WCI  24
LAKE ELMO      CLOUDY    32  30  93 S13       30.11S WCI  22
$$
MNZ001>005-007-008-013>017-022>024-027-028-210300-
   Northwest Minnesota

CITY           SKY/WX    TMP DP  RH WIND       PRES   REMARKS
BEMIDJI        CLOUDY    28  28  96 S14       29.95F FOG     WCI  17
HALLOCK        CLOUDY    30  28  93 CALM      29.89F FOG
ROSEAU         CLOUDY    30  27  86 S12       29.92S FOG     WCI  21
WARROAD        CLOUDY    28  27  93 S7        29.93F FOG     WCI  21
THIEF RVR FALL CLOUDY    30  28  93 S13       29.92F WCI  20
CROOKSTON      CLOUDY    30  28  93 S14       29.93S FOG     WCI  20
FOSSTON        CLOUDY    28  27  93 SE10      29.93F FOG     WCI  19
DETROIT LAKES  CLOUDY    32  30  93 S18       29.93F FOG     WCI  20
MOORHEAD       CLOUDY    32  32 100 S16G25    29.94F FOG     WCI  21
PARK RAPIDS    CLOUDY    30  28  92 S14       29.97R FOG     WCI  19
MAHNOMEN       CLOUDY    29  28  95 S10G18    29.92F FOG     WCI  20
$$
MNZ006-009>011-018-025>026-210300-
   North Central Minnesota

CITY           SKY/WX    TMP DP  RH WIND       PRES   REMARKS
BAUDETTE       CLOUDY    29  27  92 S9        29.94F WCI  20
FLAG ISLAND    CLOUDY    28  27  93 S13       29.92F WCI  18
INTL FALLS     CLOUDY    30  27  88 VRB5      29.97F WCI  25
WASKISH        CLOUDY    30  28  93 CALM      29.95F
BIG FORK       CLOUDY    28  27  93 S10       29.99S WCI  19
LONGVILLE      CLOUDY    28  27  93 S8        29.99F WCI  20
GRAND RAPIDS   CLOUDY    28  27  93 S13       30.00F WCI  18
CRANE LAKE     CLOUDY    28  27  93 S8        30.03F FOG     WCI  20
ORR            CLOUDY    28  27  93 S10       29.98F FOG     WCI  19
COOK           CLOUDY    28  27  93 S6        30.01F FOG     WCI  22
WALKER         CLOUDY    28  26  94 S6        29.97F WCI  21
$$
MNZ012-019>021-037-210300-
   Northeast Minnesota

CITY           SKY/WX    TMP DP  RH WIND       PRES   REMARKS
DULUTH         CLOUDY    30  26  85 S9        30.04F WCI  22
ELY            CLOUDY    28  27  93 S9        30.03F WCI  20
HIBBING        CLOUDY    30  26  85 S6        30.02F FOG     WCI  24
EVELETH        CLOUDY    30  28  93 S10       30.03F FOG     WCI  21
DULUTH HARBOR  CLOUDY    34  28  80 S9        30.10F WCI  26
TWO HARBORS    CLOUDY    34  28  80 S7        30.06F WCI  28
SILVER BAY     CLOUDY    32  28  86 S9        30.06F WCI  24
GRAND MARAIS     N/A     35  29  78 SW15      30.11F WCI  25
G MARAIS ARPRT CLOUDY    27  25  93 S6        30.05F FOG     WCI  20
$$
MNZ029>031-032-039>041-046>048-054>057-064-210300-
   West Central Minnesota

CITY           SKY/WX    TMP DP  RH WIND       PRES   REMARKS
FERGUS FALLS   CLOUDY    30  28  93 S20G25    29.98F FOG     WCI  18
WHEATON        CLOUDY    28  27  93 SE15      29.97F WCI  17
MORRIS         CLOUDY    30  28  93 S16       29.97F FOG     WCI  19
ALEXANDRIA     CLOUDY    29  27  92 S16       29.99F WCI  17
ELBOW LAKE     CLOUDY    30  28  95 S16       29.96F FOG     WCI  18
WADENA         CLOUDY    28  27  93 S9        29.98S FOG     WCI  20
GLENWOOD       CLOUDY    28  28 100 S18       30.01F WCI  16
APPLETON       CLOUDY    32  28  86 S12       30.00S WCI  23
BENSON         CLOUDY    30  28  93 S13G18    30.01F WCI  20
ORTONVILLE     CLOUDY    30  27  86 S14G20    29.97F FOG     WCI  20
MADISON        MOCLDY    34  32  93 S17       30.00S FOG     WCI  23
WILLMAR        CLOUDY    30  28  93 S9G20     30.04F WCI  22
$$
MNZ033>034-036-042>043-049>051-058-059-210300-
   Central Minnesota

CITY           SKY/WX    TMP DP  RH WIND       PRES   REMARKS
ST CLOUD       CLOUDY    31  25  78 S14       30.06F WCI  21
SAUK CENTRE    CLOUDY    29  27  93 S15       30.03R WCI  17
PAYNESVILLE    CLOUDY    27  26  96 SE9       30.05R WCI  18
AITKIN         CLOUDY    30  25  80 S9        30.03S WCI  22
PINE RIVER     CLOUDY    28  28 100 SE12      30.03F WCI  18
BRAINERD       CLOUDY    28  25  88 S16       30.03F WCI  16
STAPLES        CLOUDY    28  27  93 S17       29.99F WCI  16
LONG PRAIRIE   CLOUDY    28  28 100 SE15      30.02S WCI  17
LITTLE FALLS   CLOUDY    30  27  86 SE9G17    30.04F WCI  22
LITCHFIELD     CLOUDY    30  30 100 S5        30.05F WCI  25
BUFFALO        CLOUDY    30  26  84 S7        30.09F WCI  23
MAPLE LAKE     CLOUDY    31  28  90 S6        30.07F WCI  25
$$
MNZ037-044-045-052-053-210300-
   East Central Minnesota

CITY           SKY/WX    TMP DP  RH WIND       PRES   REMARKS
PRINCETON      CLOUDY    30  28  93 S13       30.08F WCI  20
MORA           CLOUDY    32  28  86 S8        30.09F WCI  25
CAMBRIDGE      CLOUDY    34  25  69 S10       30.07S WCI  26
RUSH CITY      CLOUDY    31  28  86 S7        30.09S WCI  24
MOOSE LAKE     CLOUDY    32  28  86 S8        30.05S WCI  25
HINCKLEY       CLOUDY    32  30  93 S10       30.08F WCI  24
CLOQUET        CLOUDY    28  27  93 S7        30.05F FOG     WCI  21
MCGREGOR       CLOUDY    30  28  93 S13       30.04F WCI  20
$$
MNZ071>073-080-081-089-090-097-098-210300-
   Southwest Minnesota

CITY           SKY/WX    TMP DP  RH WIND       PRES   REMARKS
MONTEVIDEO     CLOUDY    30  30 100 S10G18    30.02F WCI  21
GRANITE FALLS  CLOUDY    31  28  91 SE15      30.04S WCI  20
CANBY          CLOUDY    31  29  94 S9        30.00S FOG     WCI  23
MARSHALL       CLOUDY    30  27  86 S18       30.01F WCI  18
REDWOOD FALLS  CLOUDY    32  28  85 S13       30.05S WCI  22
OLIVIA         CLOUDY    32  30  93 S10       30.04S WCI  24
PIPESTONE      CLOUDY    28  28 100 S6        29.97F FOG     WCI  22
WINDOM         CLOUDY    30  30 100 S10G18    30.03F WCI  21
WORTHINGTON    CLOUDY    30  28  93 S14       30.03S WCI  20
JACKSON        CLOUDY    32  30  93 S12G17    30.04F WCI  23
TRACY          CLOUDY    31  30  94 S15       30.01F FOG     WCI  20
SLAYTON        CLOUDY    29  29 100 S7        30.00F FOG     WCI  22
$$
MNZ065>067-074>077-082>085-091>093-210300-
   South Central Minnesota

CITY           SKY/WX    TMP DP  RH WIND       PRES   REMARKS
MANKATO        CLOUDY    30  25  80 S10       30.08F WCI  21
NEW ULM        CLOUDY    30  30 100 S10       30.06S WCI  21
ST JAMES       CLOUDY    34  30  86 S14       30.07S WCI  24
FAIRMONT       CLOUDY    30  27  86 S13       30.06F WCI  20
GLENCOE        CLOUDY    32  29  91 SE7       30.07F WCI  25
FARIBAULT      CLOUDY    30  27  86 SE9       30.10F WCI  22
OWATONNA       CLOUDY    30  27  86 SE7       30.10F WCI  23
WASECA         CLOUDY    32  30  93 SE7       30.11S WCI  26
ALBERT LEA     CLOUDY    30  28  93 S8        30.10F FOG     WCI  23
$$
MNZ078>079-086>088-094>096-210300-
   Southeast Minnesota

CITY           SKY/WX    TMP DP  RH WIND       PRES   REMARKS
ROCHESTER      CLOUDY    30  27  88 S12       30.12F WCI  20
RED WING       CLOUDY    34  28  80 S6        30.13S WCI  29
STANTON        CLOUDY    32  28  86 S9        30.10F WCI  24
DODGE CENTER   CLOUDY    30  28  93 S12       30.11S FOG     WCI  21
WINONA         CLOUDY    34  32  93 SE6       30.17F FOG     WCI  29
AUSTIN         CLOUDY    30  28  93 S6        30.11F WCI  24
PRESTON        CLOUDY    29  28  96 S9        30.14S FOG     WCI  21
$$
ABBREVIATIONS USED IN REMARKS
   TC - TEMPERATURES IN CELSIUS
  WCI - WIND CHILL INDEX
   HX - HEAT INDEX
  VSB - VISIBILITY
$$


USA.gov is the U.S. government's official web portal to all federal, state and local government web resources and services.